Regional Weather Roundup
Issued by NWS Kansas City/Pleasant Hill, MO

Home | Current Version | Previous Version | Text Only | Print | Product List | Glossary On
Versions: 1 2 3 4 5 6 7 8 9 10 11 12 13 14 15 16 17 18 19 20 21 22 23 24 25 26 27 28 29 30 31 32 33 34 35 36 37 38 39 40 41 42 43 44 45 46 47 48 49 50
000
ASUS43 KEAX 312111
RWREAX

WEATHER ROUNDUP FOR EASTERN KANSAS AND NORTHWEST MISSOURI
NATIONAL WEATHER SERVICE KANSAS CITY/PLEASANT HILL MO
300 PM CST SAT JAN 31 2015

KSZ040-057-103>105-MOZ028-029-037-043-312200-
...KANSAS CITY METROPOLITAN AREA...

CITY           SKY/WX    TMP DP  RH WIND       PRES   REMARKS
K.C. INTL      LGT RAIN  37  36  96 S10       30.07F FOG     WCI  30
K.C. DOWNTOWN  LGT RAIN  40  36  86 S10       30.09F WCI  33
LEES SUMMIT    LGT RAIN  39  35  86 S9        30.09F WCI  33
OLATHE - IXD   LGT RAIN  36  34  92 SE9       30.07F FOG     WCI  29
OLATHE - OJC   LGT RAIN  37  35  92 S9        30.07F FOG     WCI  30
LAWRENCE       LGT RAIN  36  34  92 S10       30.08F FOG     WCI  28

$$

MOZ001>008-011>017-020>025-030>033-038>040-044>046-053-054-312200-
...NORTHERN AND CENTRAL MISSOURI...

CITY           SKY/WX    TMP DP  RH WIND       PRES   REMARKS
ST. JOSEPH     LGT RAIN  38  36  92 S9        30.08F FOG     WCI  31
MOSBY          DRIZZLE   37  37 100 S9        30.11F WCI  31
WARRENSBURG    RAIN      37  36  93 SE6       30.12F WCI  33
WHITEMAN AFB   DRIZZLE   40  37  88 SE3       30.12F
CLINTON        CLOUDY    43  36  75 SE5       30.11F
SEDALIA        CLOUDY    39  37  92 SE10      30.13F WCI  32
WARSAW         NOT AVBL
MARSHALL       MIX PCPN  39  39 100 E9        30.17F WCI  33
CHILLICOTHE      N/A     37  35  92 S6        30.15F WCI  32
MOBERLY        HVY RAIN  37  34  87 S7        30.19F WCI  32
KIRKSVILLE     LGT RAIN  37  37 100 S5        30.16F FOG     WCI  33

$$

MOZ041-047>049-056>058-063>065-088>090-097-312200-
...EASTERN AND SOUTHERN MISSOURI...

CITY           SKY/WX    TMP DP  RH WIND       PRES   REMARKS
ST. LOUIS INTL CLOUDY    46  24  42 S6        30.23S
SPIRIT OF STL  CLOUDY    45  24  43 S6        30.22F
COLUMBIA       LGT RAIN  34  33  96 S7        30.19F FOG     WCI  28
JEFFERSON CITY LGT RAIN  38  35  89 E3        30.21F FOG
MEXICO         LGT RAIN  39  36  87 S6        30.20F WCI  35
HANNIBAL       CLOUDY    36  34  93 S5        30.19S FOG     WCI  32
ROLLA          CLOUDY    36  31  82 NE8       30.14F WCI  30
LEBANON        CLOUDY    41  25  52 E8        30.12F
OSAGE BEACH    CLOUDY    39  32  75 E5        30.16S
SPRINGFIELD    CLOUDY    45  18  34 SE13      30.09F
BRANSON        CLOUDY    46  23  39 SE13      30.13F
NEVADA         CLOUDY    43  32  65 CALM      30.11F
JOPLIN         CLOUDY    49  16  26 S10       30.09F
WEST PLAINS    CLOUDY    44  18  35 S8        30.17F

$$

IAZ060-094-KSZ022-034>040-054-083-096-NEZ052-066-093-312200-
...KANSAS...SOUTHEAST NEBRASKA AND IOWA...

CITY           SKY/WX    TMP DP  RH WIND       PRES   REMARKS
TOPEKA         LGT RAIN  34  33  96 SE7       30.06F FOG     WCI  28
MANHATTAN      LGT RAIN  35  34  96 SE9       29.99F FOG     WCI  28
EMPORIA        LGT RAIN  37  37 100 SE13      30.00F FOG     WCI  29
CHANUTE        LGT RAIN  40  35  83 SE13      30.06F WCI  32
WICHITA        LGT RAIN  40  38  93 S15       29.96F WCI  32
OMAHA          LGT RAIN  34  33  96 SE9       30.02F WCI  27
LINCOLN        SNOW      33  32  96 SE8       29.98F VSB 1/2 WCI  26
FALLS CITY     LGT RAIN  35  35 100 SE10      30.04F FOG     WCI  27
LAMONI         LGT RAIN  37  35  92 S12       30.10F WCI  29
DES MOINES     LGT RAIN  39  36  89 S7        30.10F WCI  34

$$




USA.gov is the U.S. government's official web portal to all federal, state and local government web resources and services.